FW1460 Weather Reports


time (UTC)temp
C
wind
direction
speed
KPH
gust
KPH
rain 1hr
cm
rain 24hr
cm
rain mn
cm
humidity
%
barometer
mb
20260503054609 8 307 0.0 9.7 0.00 0.00 0.00 81 1008.3
20260503053050 8 5 0.0 6.4 0.00 0.00 0.00 86 1008.5
20260503051547 8 9 0.0 4.8 0.00 0.00 0.00 89 1008.5
20260503050047 8 9 0.0 6.4 0.00 0.00 0.00 89 1008.4
20260503044546 8 165 0.0 3.2 0.00 0.00 0.00 90 1008.8
20260503043051 8 163 0.0 0.0 0.00 0.00 0.00 90 1008.9
20260503041537 8 163 0.0 0.0 0.00 0.00 0.00 90 1009.0
20260503040035 8 163 0.0 0.0 0.00 0.00 0.00 90 1009.4
20260503034531 8 163 0.0 0.0 0.00 0.00 0.00 90 1009.6
20260503033031 8 163 0.0 0.0 0.00 0.00 0.00 90 1009.5
20260503031530 8 163 0.0 0.0 0.00 0.00 0.00 89 1009.2
20260503030034 8 163 0.0 0.0 0.00 0.00 0.00 89 1009.4
20260503024528 8 163 0.0 0.0 0.00 0.00 0.00 89 1009.3
20260503023028 8 163 0.0 0.0 0.00 0.00 0.00 89 1009.6
20260503021527 8 163 0.0 0.0 0.00 0.00 0.00 89 1009.6
20260503020027 8 163 0.0 0.0 0.00 0.00 0.00 89 1009.7
20260503014526 8 163 0.0 0.0 0.00 0.00 0.00 88 1009.9
20260503013035 9 163 0.0 4.8 0.00 0.00 0.00 88 1009.9
20260503011525 9 177 0.0 3.2 0.00 0.00 0.00 87 1010.0
20260503010024 9 177 0.0 4.8 0.00 0.00 0.00 87 1009.7
20260503004533 9 178 1.6 4.8 0.00 0.00 0.00 87 1009.8
20260503003029 9 178 0.0 3.2 0.00 0.00 0.00 87 1009.8
20260503001524 9 178 0.0 1.6 0.00 0.00 0.00 86 1009.9
20260503000026 9 178 0.0 1.6 0.00 0.00 0.00 86 1009.8
20260502234535 9 178 1.6 4.8 0.00 0.00 0.00 86 1009.7
20260502233031 9 178 0.0 3.2 0.00 0.00 0.00 86 1009.8
20260502231521 9 188 0.0 4.8 0.00 0.00 0.00 85 1009.7
20260502230025 10 194 0.0 4.8 0.00 0.00 0.00 84 1009.9
20260502224519 10 203 1.6 4.8 0.00 0.00 0.00 84 1009.9
20260502223029 10 219 0.0 3.2 0.00 0.00 0.00 82 1009.8
20260502221518 10 177 0.0 0.0 0.00 0.00 0.00 80 1009.6
20260502220022 10 176 0.0 4.8 0.00 0.00 0.00 79 1009.6
20260502214516 10 139 3.2 11.3 0.00 0.00 0.00 80 1009.3
20260502213015 10 138 8.0 12.9 0.00 0.00 0.00 80 1009.5
20260502211514 10 147 3.2 12.9 0.00 0.00 0.00 80 1009.6
20260502210013 10 145 3.2 6.4 0.00 0.00 0.00 81 1009.7
20260502204514 10 187 0.0 4.8 0.00 0.00 0.00 81 1009.8
20260502203011 10 163 1.6 9.7 0.00 0.00 0.00 81 1009.8
20260502201510 10 154 3.2 9.7 0.00 0.00 0.00 80 1010.0
20260502200009 11 153 3.2 12.9 0.00 0.00 0.00 78 1010.2
20260502194519 11 190 3.2 14.5 0.00 0.00 0.00 77 1010.3
20260502193007 11 178 6.4 12.9 0.00 0.00 0.00 77 1010.3
20260502191504 11 186 6.4 12.9 0.00 0.00 0.00 77 1010.5
20260502190003 11 260 3.2 12.9 0.00 0.00 0.00 77 1010.6
20260502184607 11 189 6.4 12.9 0.00 0.00 0.00 76 1010.7
20260502183101 11 210 3.2 16.1 0.00 0.00 0.00 76 1011.0
20260502181559 11 146 6.4 17.7 0.00 0.00 0.00 74 1011.0
20260502163101 13 215 4.8 17.7 0.00 0.00 0.00 70 1010.8
20260502161555 12 193 4.8 14.5 0.00 0.00 0.00 72 1010.9
20260502160156 13 173 3.2 11.3 0.00 0.00 0.00 74 1011.1
20260502151611 13 205 3.2 6.4 0.00 0.00 0.00 73 1011.5
20260502123048 10 168 3.2 11.3 0.00 0.00 0.00 78 1012.1
20260502121539 11 188 4.8 14.5 0.00 0.00 0.00 77 1012.1
20260502114534 10 218 4.8 11.3 0.00 0.00 0.00 79 1011.8
20260502113032 10 209 3.2 9.7 0.00 0.00 0.00 78 1011.6
20260502111532 9 155 3.2 12.9 0.00 0.00 0.00 79 1011.5
20260502110030 9 212 1.6 11.3 0.00 0.00 0.00 79 1011.8
20260502104532 9 146 1.6 4.8 0.00 0.00 0.00 79 1011.7
20260502103027 8 172 0.0 4.8 0.00 0.00 0.00 79 1011.2
20260502101527 8 202 1.6 6.4 0.00 0.00 0.00 79 1011.3
20260502091524 8 173 0.0 6.4 0.00 0.00 0.00 77 1011.3
20260502071515 8 160 0.0 1.6 0.00 0.00 0.00 74 1011.1
20260502070013 8 161 0.0 4.8 0.00 0.00 0.00 74 1011.0
20260502064512 9 204 3.2 8.0 0.00 0.00 0.00 73 1011.0
20260502063010 9 194 1.6 8.0 0.00 0.00 0.00 73 1011.2
20260502061512 9 209 0.0 6.4 0.00 0.00 0.00 74 1011.1
20260502060007 9 188 0.0 6.4 0.00 0.00 0.00 74 1011.2